Location: Unspecified
(0.0000°N, 0.0000°E)
Time: 07:29:12
(UTC+00:00)

Vanguard 1 Rocket - Pass Details

Date: 11 December 2017
Orbit: 653 x 4224 km, 34.3° (Epoch: 23 June)

Event Time Altitude Azimuth Distance (km) Brightness Sun altitude
Rises 15:18:09 0° 263° (W) 3,336 11.2 35.2°
Reaches altitude 10° 15:20:29 10° 275° (W) 2,625 10.7 34.7°
Maximum altitude 15:25:55 31° 336° (NNW) 2,083 9.5 33.5°
Drops below altitude 10° 15:34:54 10° 33° (NNE) 4,402 10.5 31.5°
Sets 15:40:17 0° 42° (NE) 6,068 11.1 30.3°
